Hlavní strana
METAR-TAF:

METAR-TAF

Letiště :

Baldwin_County_Airport

Milledgeville, Georgie, Spojené státy americké

zeměpisná šířka: 33-09-15N, zeměpisná délka: 083-14-26W, výška: 117 m

Aktuální stav počasí

Zpráva byla vytvořena před 23 minutami, v 07:35 UTC
Východojihovýchodní vítr 7 kt
Teplota 11°C
Vlhkost vzduchu 71%
Tlak 1027 hPa
Viditelnost: 16.1 km
Zataženo ve výšce 7000 ft

METAR: KMLJ 080735Z AUTO 11007KT 10SM OVC070 11/06 A3032 RMK AO2

Čas: 02:58 (07:58 UTC)


TAF: chybějící

Stav a předpovědi počasí z více než 4 000 letišť (zprávy METAR a TAF).

Červené a žluté tečky na mapě představují dostupné meteorologické stanice.

Když kurzor umístíte na tečku, zobrazí se název stanice.

Pak kliknutím zobrazíte stav a předpověď počasí.

Chcete-li změnit mapu, kliknutím na zelené tlačítko se znaménkem +mapu přiblížíte, kliknutím na zelené tlačítko se znaménkem – mapu oddálíte a kliknutím na zelené šipky přejdete na sousední mapy.


METAR-TAF: